GFSFLT1_sfc_thetae_057.txt.gz
Theta_e
326 332 332 332 333 336 341 349 353 352 350 353 354 354 355 354 355 355 355 352 353 352 349 348 347 347 341 343 342 340 340 341
318 324 333 332 333 335 340 344 349 351 349 349 351 350 353 350 351 353 351 347 349 350 347 347 348 344 343 341 339 340 341 341
318 321 333 336 334 335 337 343 345 348 348 346 349 349 350 349 349 351 351 348 347 348 347 345 344 343 341 340 339 339 339 339
317 320 327 335 337 335 338 340 347 346 345 345 347 348 349 348 347 348 350 348 347 344 345 343 342 341 340 339 338 337 336 336
311 316 323 331 337 339 340 342 344 347 347 343 344 343 344 343 344 347 345 347 346 345 341 340 340 340 342 340 339 338 336 335
313 315 318 322 331 337 344 340 340 345 345 343 340 342 340 340 341 342 343 343 343 341 339 337 338 339 337 336 336 334 333 334
314 315 316 320 327 338 344 344 339 343 341 341 340 344 340 341 340 340 341 341 341 338 337 337 340 337 335 335 335 335 334 334
312 314 316 318 322 328 340 347 347 344 338 337 337 338 341 340 341 340 337 339 339 338 336 339 339 336 335 336 337 337 336 335
310 312 315 315 319 321 324 335 351 349 343 338 335 333 336 337 339 343 337 339 341 339 337 333 336 336 340 340 338 338 336 337
308 311 314 317 317 321 321 324 333 345 347 347 345 343 339 341 341 347 347 343 342 341 339 338 338 339 341 341 339 337 337 338
306 309 313 315 317 319 320 322 324 331 343 346 346 345 345 342 344 346 346 345 344 343 345 343 341 343 340 341 341 340 337 338
307 308 310 312 314 316 319 322 323 323 332 337 345 341 340 344 344 346 348 347 346 346 347 346 345 343 345 343 342 342 341 337
307 308 308 310 313 314 317 320 323 326 326 333 335 342 344 346 345 351 354 349 350 348 350 348 346 345 346 345 343 341 340 338
308 309 310 310 312 312 315 317 322 325 325 328 332 336 340 339 342 342 343 344 347 350 350 349 349 348 346 345 344 343 341 340
307 307 308 309 311 314 314 315 318 322 322 324 329 333 336 339 342 340 342 340 342 349 350 350 348 348 348 346 344 342 341 339
306 308 308 309 311 313 314 315 315 318 321 322 327 332 333 337 341 338 337 337 343 352 349 350 349 348 347 345 343 343 343 342
306 308 308 309 312 314 315 314 315 318 320 322 325 329 335 338 346 346 342 343 343 347 347 347 347 347 347 346 345 345 344 343
307 308 307 310 314 315 316 316 315 317 319 321 322 326 333 337 343 343 344 345 344 344 345 347 348 348 348 349 347 347 345 340
306 307 308 312 314 316 318 319 318 315 317 319 322 325 330 335 336 339 341 343 343 343 345 346 347 348 349 348 344 345 340 336
305 306 308 312 312 312 314 317 319 317 316 318 321 325 329 332 334 337 340 341 343 343 345 346 348 348 348 345 342 341 336 334

GFSFLT1_sfc_thetae_060.txt.gz
Theta_e
321 325 330 335 336 340 343 351 354 351 348 349 350 350 352 354 355 356 355 352 353 350 348 350 347 347 341 343 343 340 339 339
319 320 324 330 337 336 341 348 354 357 350 350 349 347 350 351 353 358 355 353 353 351 346 346 348 344 344 341 339 341 341 341
319 321 325 332 336 340 339 345 352 354 356 349 349 348 349 351 351 355 354 351 350 350 349 346 345 344 342 343 340 340 340 341
317 320 324 332 336 339 341 343 351 352 353 355 352 353 352 352 348 351 354 351 350 347 348 347 345 344 341 341 340 339 339 338
314 318 321 326 334 339 346 347 347 351 354 353 350 348 348 348 347 353 353 354 353 353 345 345 343 346 347 344 343 341 339 338
315 316 320 323 326 332 344 342 345 352 352 352 347 343 345 344 345 346 351 353 352 352 344 343 342 343 342 341 340 339 339 339
315 316 317 321 325 330 338 348 343 348 352 348 350 351 345 341 344 344 347 349 349 348 343 342 347 340 340 340 340 342 342 341
314 316 317 320 324 328 331 344 348 349 347 349 344 342 342 341 341 340 344 345 346 348 342 343 342 339 339 340 346 345 344 343
313 315 318 320 325 328 332 330 341 350 340 339 338 338 340 340 341 346 346 348 347 349 341 342 344 344 344 344 346 346 344 345
310 313 316 320 323 326 328 330 332 337 349 351 347 343 340 340 342 346 348 346 346 346 349 345 347 336 346 349 349 344 345 346
308 310 315 318 319 321 323 327 332 333 336 344 352 352 351 345 343 342 345 348 345 348 349 347 346 344 342 352 350 350 343 344
309 310 312 314 316 319 322 325 328 330 333 335 346 345 345 344 349 346 346 353 349 350 351 349 351 349 354 352 351 349 349 344
309 310 311 314 317 318 322 324 326 329 333 335 332 340 338 344 349 355 356 357 353 350 353 354 355 352 356 357 353 351 349 345
311 311 313 313 316 319 321 322 324 326 329 332 335 335 338 337 344 347 348 350 353 354 352 357 357 356 355 354 355 353 352 350
309 310 312 313 314 317 318 320 322 324 326 328 331 334 338 340 345 340 347 345 346 356 358 358 355 358 357 357 354 353 351 348
309 311 313 313 314 316 319 320 321 322 324 326 329 332 331 335 339 337 338 341 344 356 356 356 357 357 357 356 352 350 351 349
309 311 312 313 315 317 319 320 323 324 324 327 329 329 331 334 346 349 340 347 344 351 353 355 355 356 355 355 349 350 351 351
309 310 312 314 316 318 320 321 322 326 327 326 324 327 331 335 339 345 348 350 349 348 350 353 354 355 353 353 350 353 352 351
308 310 312 313 314 317 319 319 319 322 326 327 325 325 327 330 334 339 345 352 349 346 348 351 352 351 352 353 355 354 352 351
308 310 311 312 312 313 316 318 318 320 323 327 326 325 327 329 333 338 342 344 348 348 349 349 348 348 353 353 353 351 349 347

GFSFLT1_sfc_thetae_063.txt.gz
Theta_e
321 322 326 336 340 340 343 355 359 352 346 349 349 347 349 351 352 356 355 349 352 347 347 347 347 349 341 344 342 340 338 337
319 320 323 331 337 340 342 349 355 361 346 346 348 344 349 348 350 359 358 351 357 356 346 348 353 343 345 342 341 345 342 340
320 322 324 329 334 340 341 348 357 359 364 349 350 348 348 348 350 355 354 352 358 354 354 347 348 345 344 345 342 344 342 342
318 320 322 330 334 340 344 345 358 359 359 365 357 356 353 351 350 354 357 355 358 350 352 347 346 344 343 344 345 343 342 341
317 319 323 326 334 340 348 349 351 359 361 360 356 353 350 351 351 362 360 360 360 357 348 347 346 349 358 352 349 345 341 341
318 318 321 325 326 330 344 342 348 354 354 356 351 351 352 350 349 351 357 360 359 358 347 346 346 348 344 344 344 341 340 341
318 319 320 322 327 330 337 348 346 353 355 354 355 357 350 349 348 348 355 356 356 355 349 347 356 346 344 345 342 345 343 344
316 318 319 323 327 331 333 340 354 352 354 355 349 349 347 349 347 346 351 353 353 355 348 350 350 343 343 342 349 346 344 346
315 316 317 320 326 328 331 332 343 348 349 345 345 344 346 346 346 346 350 350 348 351 346 349 348 345 342 352 347 344 344 350
312 314 317 318 320 331 330 329 334 339 349 345 345 343 344 345 347 348 348 348 351 351 347 349 349 342 350 348 348 343 345 349
311 312 316 318 320 320 323 328 330 336 343 347 351 350 350 345 342 341 346 347 350 350 349 347 350 347 345 347 347 352 339 348
311 313 315 317 317 319 321 326 329 332 335 339 346 349 348 348 347 347 348 346 349 347 349 346 347 347 348 349 352 352 354 345
311 312 314 315 316 320 322 325 328 330 332 341 334 338 339 348 352 358 359 353 350 347 344 345 347 351 353 355 358 361 352 349
311 312 313 315 317 317 320 323 325 328 329 331 336 337 339 336 340 346 352 349 352 350 350 353 355 353 355 360 356 360 357 355
311 311 312 314 315 316 318 320 324 325 326 328 331 337 337 342 342 336 344 348 352 358 358 357 355 359 361 360 360 362 360 354
311 312 312 313 314 316 317 319 321 324 326 327 329 334 328 330 336 336 334 336 344 364 363 358 359 361 362 357 358 358 360 356
310 312 313 313 315 316 318 319 321 323 325 328 330 330 334 333 341 344 338 346 341 348 360 360 359 359 362 363 357 360 358 357
310 311 312 314 316 316 318 321 321 323 324 325 326 329 329 333 338 340 342 346 352 349 352 356 358 359 362 363 358 357 354 352
310 310 312 314 315 315 317 317 319 320 321 323 327 328 329 331 334 336 340 345 348 348 349 349 351 354 360 360 357 354 352 355
310 311 312 313 313 314 315 316 316 318 320 321 322 327 330 333 333 334 339 342 347 348 347 345 347 352 356 356 353 349 352 352

GFSFLT1_sfc_thetae_069.txt.gz
Theta_e
314 314 312 313 335 342 343 346 346 345 349 352 352 352 351 350 349 348 344 343 343 342 339 342 342 349 343 346 345 343 339 335
314 314 312 314 328 339 341 344 344 342 349 348 346 347 347 346 345 346 343 339 336 340 339 339 339 339 338 334 336 336 336 333
314 314 314 318 322 338 341 343 341 341 347 345 344 344 344 343 342 345 344 338 339 341 339 338 339 339 338 334 333 334 333 334
314 314 313 320 324 331 343 345 344 343 346 346 341 339 342 343 343 345 346 341 338 343 342 343 342 341 339 336 334 334 334 335
313 314 315 321 325 334 337 346 349 346 350 350 350 342 343 342 343 344 345 346 340 340 344 342 342 342 340 338 338 338 336 336
312 314 320 320 322 325 333 341 349 345 346 347 348 349 346 343 344 345 347 344 348 346 345 343 341 341 340 338 335 333 332 331
311 317 320 321 322 324 329 335 345 347 348 350 347 348 348 347 346 348 347 346 349 349 344 342 343 340 340 339 336 334 332 332
312 317 322 322 322 324 325 331 340 347 347 346 347 345 346 345 344 345 349 350 349 346 345 343 341 341 337 336 336 336 333 333
312 316 319 321 324 325 325 329 342 343 344 342 340 341 342 340 340 342 342 347 350 347 344 342 343 340 336 335 334 333 333 338
309 315 318 318 322 322 322 326 330 340 343 341 340 339 339 341 340 341 341 343 345 347 346 343 342 339 337 335 333 332 333 336
305 310 314 319 319 319 321 321 325 327 333 340 337 336 339 338 339 339 339 340 342 344 344 345 341 340 338 338 335 332 331 334
306 306 310 312 318 318 318 320 320 322 324 329 337 333 329 333 333 337 340 340 341 342 342 344 343 341 339 337 337 335 336 331
305 305 306 310 312 315 318 319 318 319 320 324 328 329 331 335 336 336 336 338 340 340 339 343 342 340 340 337 336 336 337 334
306 308 308 308 308 311 313 317 318 319 319 319 322 325 328 329 331 331 336 337 338 339 339 338 342 341 339 339 337 340 341 340
305 305 306 306 308 309 314 314 314 318 318 320 321 322 323 325 328 329 331 332 334 337 338 337 339 340 340 338 335 338 341 343
303 304 304 307 307 309 309 311 313 316 320 319 319 317 320 322 323 325 325 328 333 337 334 330 329 335 339 340 342 340 342 342
304 306 305 305 307 308 308 308 310 313 316 317 320 322 322 320 320 322 324 325 328 331 334 331 333 335 342 341 340 341 342 342
304 304 305 306 307 308 309 310 310 310 312 313 318 321 323 322 322 322 322 323 327 329 329 335 338 341 342 333 340 342 343 341
301 303 305 306 308 307 309 310 311 312 312 314 315 316 317 319 324 324 324 324 327 330 329 330 332 337 345 343 345 347 345 346
301 302 303 304 304 305 307 311 310 311 313 314 316 317 318 317 319 323 324 323 324 327 330 332 334 335 340 348 347 348 348 346

GFSFLT1_sfc_thetae_072.txt.gz
Theta_e
312 311 329 341 345 345 345 347 351 352 351 353 352 354 353 352 351 348 345 343 342 343 339 342 341 348 341 345 343 342 339 336
311 311 311 333 343 343 344 346 347 347 351 350 349 349 349 348 349 346 343 339 337 336 336 336 337 338 338 335 336 336 337 336
311 311 313 323 332 338 342 344 343 340 347 349 349 348 348 347 346 346 343 337 336 337 335 336 336 336 336 334 333 332 332 332
310 310 310 315 328 336 341 343 341 340 344 343 346 347 347 345 344 345 343 339 336 334 336 336 335 336 336 336 334 331 331 331
312 314 313 323 328 333 339 341 342 341 344 341 341 343 343 342 343 343 344 338 335 338 337 338 338 338 337 336 334 334 331 333
311 312 318 322 326 330 332 343 342 343 344 344 341 341 341 342 342 342 344 343 337 334 341 340 340 341 339 336 336 334 333 332
310 315 318 319 321 325 330 336 343 342 345 346 344 340 341 341 342 342 343 344 346 340 338 341 341 339 338 337 335 333 331 331
310 317 319 319 320 323 327 333 339 344 344 345 345 344 344 341 341 343 343 344 344 346 344 341 340 339 338 335 335 335 332 330
311 317 319 318 318 318 322 333 338 341 341 337 336 341 341 342 341 344 347 345 345 345 345 343 339 337 337 335 333 332 331 335
311 314 317 319 318 318 321 325 330 338 341 339 336 336 338 340 341 341 341 346 348 345 343 341 340 339 338 335 332 331 331 333
308 313 314 317 316 315 317 319 322 324 330 337 335 334 335 335 337 339 340 340 344 347 345 343 341 340 339 336 334 330 329 331
306 310 311 315 314 315 316 317 317 318 320 324 332 329 326 329 333 336 337 339 339 342 344 344 343 341 340 337 337 334 329 330
302 307 313 314 314 313 314 315 315 315 316 321 323 324 328 331 332 331 333 338 339 340 340 342 343 341 340 338 335 333 332 333
303 309 309 309 312 313 314 314 314 315 316 315 317 319 321 325 326 327 332 335 335 338 338 337 339 339 338 338 336 333 333 335
304 306 305 304 307 309 311 313 312 314 315 315 316 317 317 318 321 324 327 330 330 333 337 337 337 338 340 338 335 334 335 336
304 304 304 304 306 306 310 310 310 312 313 313 314 315 314 317 319 320 321 323 327 332 335 337 338 339 339 338 338 338 337 336
303 302 302 304 303 307 309 310 310 311 314 316 315 315 315 316 318 317 319 323 325 325 329 332 331 331 333 334 334 334 335 335
302 302 302 303 304 307 306 307 307 308 311 313 314 315 319 319 317 318 318 319 321 322 325 332 332 333 332 334 336 337 329 331
302 301 302 302 303 304 305 305 306 306 307 307 308 310 313 315 318 320 319 319 321 323 325 327 329 330 333 336 337 336 333 331
302 304 304 303 301 303 306 306 307 308 308 309 311 312 313 313 313 315 320 321 322 322 324 326 327 330 330 335 337 335 333 331

GFSFLT1_sfc_thetae_075.txt.gz
Theta_e
328 337 339 341 343 346 348 349 350 348 349 352 352 353 352 352 350 349 344 343 343 343 339 342 340 347 340 344 342 340 336 334
312 324 336 341 342 343 348 349 348 347 347 350 350 350 350 349 350 346 342 339 336 336 334 333 334 335 336 335 336 335 335 336
309 313 325 341 340 342 345 348 348 348 349 349 348 348 348 349 348 345 342 337 335 334 332 332 333 333 334 333 332 332 332 332
308 308 315 334 339 340 343 345 348 347 347 347 347 348 348 347 347 346 343 338 332 332 333 332 333 334 333 334 333 331 330 330
311 310 314 327 330 336 340 343 345 344 347 346 346 347 347 346 345 345 345 339 334 332 332 333 334 334 334 334 333 332 330 330
311 311 311 318 326 334 338 343 342 341 344 345 344 345 345 345 345 344 344 342 337 334 333 334 337 336 336 335 335 333 332 332
310 311 314 325 327 331 336 338 339 338 340 342 342 340 339 341 341 341 342 343 339 334 335 337 337 337 337 337 335 334 331 330
307 310 315 320 323 327 332 339 338 337 341 341 340 339 341 340 339 340 340 342 342 338 335 334 338 337 336 335 334 333 332 330
306 313 316 317 319 323 328 334 338 341 340 338 338 337 337 339 341 341 341 341 342 342 341 340 338 338 337 337 334 333 331 333
309 314 315 315 315 317 324 332 335 338 339 338 336 335 336 339 339 341 345 343 341 342 342 341 341 338 336 335 332 330 330 333
305 312 314 314 313 316 322 326 328 329 334 335 332 332 333 333 334 335 337 343 346 343 342 341 341 340 339 337 334 331 330 330
301 311 311 313 314 313 317 320 319 320 326 330 331 330 327 329 330 334 334 338 338 344 344 343 341 340 338 337 337 335 331 330
299 307 313 314 312 311 313 314 313 314 317 319 323 324 328 329 329 329 329 333 336 337 339 337 340 340 340 338 335 334 331 330
299 303 311 311 311 310 311 311 311 312 313 317 319 319 318 322 323 325 326 329 331 334 336 336 337 335 332 332 338 335 332 331
298 305 309 311 309 309 311 310 310 312 313 312 313 314 315 316 317 319 321 324 327 329 332 333 333 335 337 338 338 336 333 332
300 306 310 311 309 309 310 309 308 311 312 312 313 313 313 314 315 318 318 319 323 325 328 331 334 336 337 337 336 335 334 334
299 300 301 305 307 307 309 309 307 310 312 311 311 311 311 312 313 314 316 318 323 323 322 325 329 331 334 334 333 334 335 336
300 300 301 301 301 306 306 309 308 309 309 311 313 313 313 313 313 314 314 316 317 319 319 322 326 328 328 328 330 332 332 332
301 302 302 301 300 301 304 305 306 305 308 310 312 312 312 315 315 314 314 315 315 317 320 321 323 324 327 329 332 333 334 334
301 302 303 303 300 300 302 303 302 304 306 305 306 306 308 309 310 311 313 315 317 319 320 322 323 324 324 324 326 330 333 331

GFSFLT1_sfc_thetae_078.txt.gz
Theta_e
332 334 336 338 343 346 348 349 350 350 350 351 351 352 352 350 350 348 345 344 345 345 342 346 345 349 342 346 344 342 339 337
325 334 335 337 341 345 348 348 349 348 350 350 349 349 350 350 348 348 342 340 339 340 339 338 338 338 338 337 337 338 337 337
313 327 336 339 339 343 347 348 347 348 347 350 348 347 348 347 347 347 344 340 338 337 336 334 334 335 335 335 335 335 335 335
308 311 325 338 340 341 346 346 347 348 347 347 347 347 348 348 347 347 345 341 337 335 334 333 332 334 335 335 335 334 334 334
310 310 318 338 340 341 343 345 346 347 346 346 347 347 348 346 346 347 346 342 337 335 335 333 333 335 336 336 335 335 334 334
310 310 312 330 337 338 341 345 345 346 346 345 345 346 347 346 347 346 346 345 340 335 333 334 336 336 336 336 335 335 335 335
309 310 310 318 329 337 339 341 342 343 345 345 344 344 346 345 343 342 344 345 343 338 336 334 336 337 337 337 337 337 337 335
305 310 311 313 323 331 337 340 340 341 341 340 339 340 342 343 342 341 341 342 344 338 336 335 338 336 336 338 338 337 336 334
303 305 310 316 321 326 331 335 336 337 337 338 336 335 338 338 340 341 340 340 342 341 338 335 336 336 338 339 338 337 336 336
301 308 312 316 321 324 328 334 335 336 339 340 339 337 336 337 339 340 341 341 341 341 341 340 339 337 339 339 337 334 335 335
299 307 312 313 316 319 326 332 336 337 337 334 333 334 335 334 337 338 340 342 343 342 341 342 342 343 340 338 337 334 334 334
298 301 310 312 313 315 322 328 330 333 336 335 333 331 329 334 336 339 338 340 341 344 342 340 341 341 338 339 340 338 334 333
299 299 306 312 313 312 318 322 322 324 330 334 332 327 329 330 332 332 333 335 337 339 342 341 341 341 341 339 337 336 334 334
298 300 302 310 311 311 313 315 314 315 317 319 323 325 325 325 326 328 329 332 334 336 337 337 338 337 336 335 337 335 330 330
299 296 298 306 309 310 310 310 310 311 314 317 318 319 319 320 321 322 324 327 331 333 336 336 337 338 337 335 332 331 332 331
298 299 300 305 310 311 312 309 309 311 312 313 313 314 315 316 317 318 320 323 326 330 330 333 336 337 338 339 340 337 335 334
298 300 300 306 308 310 310 308 309 311 312 312 313 314 314 314 315 317 317 319 322 327 330 331 333 335 337 338 337 337 335 335
300 301 300 301 303 304 307 308 308 310 311 311 312 312 313 313 313 315 316 318 321 322 322 325 329 331 332 333 333 334 333 334
300 302 303 303 301 303 305 306 306 307 309 310 312 312 314 314 315 316 316 317 318 319 321 322 324 326 330 330 330 331 332 334
301 304 304 305 304 303 302 304 305 305 306 309 311 313 313 313 315 316 316 317 318 320 322 323 324 325 325 325 326 329 330 331

GFSFLT1_sfc_thetae_084.txt.gz
Theta_e
317 321 333 341 349 348 350 357 360 357 352 353 352 351 351 351 352 354 355 351 350 347 346 346 346 348 342 342 342 340 338 338
318 318 322 337 345 348 351 354 359 360 354 353 353 350 350 349 350 355 355 351 350 347 343 343 345 342 342 342 339 341 343 344
319 321 322 331 341 348 351 354 358 358 358 354 355 352 350 350 349 355 354 352 349 346 345 344 344 342 342 342 340 341 345 349
318 319 321 324 334 346 352 353 360 359 358 360 358 358 354 351 347 350 355 352 352 346 347 345 343 343 342 341 340 341 347 349
317 321 324 327 332 345 350 354 357 360 358 358 357 355 353 351 349 355 353 354 353 352 345 344 342 345 347 345 344 344 346 347
317 319 322 325 331 341 352 352 355 361 361 358 357 354 353 352 351 351 354 353 352 350 344 345 344 345 343 340 340 342 346 346
317 319 321 324 328 336 347 357 355 358 360 357 359 362 355 352 352 351 355 354 352 350 345 344 350 343 342 341 341 344 343 346
316 318 321 324 327 336 343 350 357 360 358 359 354 353 354 353 353 352 354 355 354 354 348 350 350 344 341 341 346 342 343 343
317 318 321 323 327 329 336 349 357 358 355 352 351 349 351 352 352 357 355 355 354 355 351 352 353 349 350 350 345 345 338 345
315 317 319 322 326 329 333 344 354 357 354 354 352 351 349 350 351 354 355 354 354 355 356 353 356 349 353 352 350 340 339 344
314 315 318 321 324 328 331 338 349 359 360 356 354 352 351 348 350 349 353 353 353 354 357 354 355 352 346 353 350 347 334 344
314 315 317 319 321 325 330 334 342 351 358 355 354 347 345 346 349 349 351 352 350 351 355 352 352 349 349 348 348 348 346 343
313 315 318 320 322 323 327 334 337 344 352 356 351 349 347 347 348 356 356 353 352 349 351 352 352 350 353 351 351 347 344 338
315 317 318 319 322 322 324 330 336 341 347 352 355 354 351 345 349 347 347 347 349 351 350 350 352 349 350 349 346 344 338 336
314 315 316 317 319 322 324 324 331 340 344 347 348 351 354 353 352 349 349 345 347 354 352 352 350 351 348 345 344 343 338 336
313 315 316 317 318 320 324 322 325 334 345 346 347 349 350 350 351 347 346 342 346 355 355 354 353 349 346 344 342 340 337 335
313 315 316 317 319 320 322 324 324 328 338 346 348 351 352 349 353 352 346 350 344 349 352 352 352 351 350 350 344 343 342 340
312 313 314 317 319 320 322 325 325 326 332 338 340 342 341 338 339 339 338 338 338 339 342 346 347 347 348 350 350 348 345 341
310 311 313 315 316 317 321 320 323 325 328 331 331 330 331 332 332 333 333 336 336 334 336 338 340 342 345 347 348 346 343 344
310 310 311 311 312 314 317 320 319 322 323 326 326 328 329 330 330 331 332 333 333 332 332 332 333 336 340 340 339 339 339 338

GFSFLT1_sfc_thetae_087.txt.gz
Theta_e
321 321 324 334 346 347 347 357 360 356 351 352 352 350 352 353 355 358 358 352 353 347 347 346 348 349 342 342 340 338 336 336
320 322 323 325 337 348 350 353 359 364 353 350 353 349 352 349 349 357 357 352 356 353 343 346 348 340 341 341 336 344 343 340
320 323 325 326 329 344 350 354 361 363 365 354 355 352 351 350 349 354 354 351 355 350 349 345 343 340 341 342 342 344 342 342
317 319 323 326 328 336 346 351 363 363 361 364 360 361 354 353 350 351 357 355 357 348 349 344 343 342 341 343 344 341 341 344
318 320 323 326 328 332 339 353 360 366 366 365 359 355 354 352 350 357 358 361 361 354 347 345 344 347 357 351 349 344 341 344
318 320 322 325 327 331 341 344 356 367 365 362 358 358 356 355 352 352 357 357 359 357 346 347 347 347 344 344 343 338 338 341
319 319 322 324 327 331 334 353 352 362 365 363 361 363 358 356 356 352 355 353 353 353 349 349 355 346 343 343 342 343 341 344
318 319 321 323 327 337 338 341 360 366 361 363 359 358 359 358 356 354 357 353 353 352 349 346 351 345 344 344 347 344 341 340
318 319 321 322 327 332 341 344 346 359 356 354 355 352 356 357 357 360 359 358 357 354 351 351 352 347 346 351 346 348 341 347
316 318 320 322 328 334 335 337 348 354 357 357 357 356 357 357 358 359 360 360 359 357 356 350 353 348 352 353 350 342 340 345
315 316 319 320 322 331 332 341 343 348 359 357 359 359 357 353 354 356 356 357 357 358 357 356 356 353 348 355 356 350 341 343
315 316 318 321 322 325 331 336 342 342 349 353 355 350 349 352 353 353 356 358 356 357 358 358 358 356 353 356 355 353 350 342
315 316 318 320 322 324 330 336 338 342 347 353 351 353 351 351 353 355 357 357 357 355 357 359 358 355 356 356 355 353 349 343
316 317 319 319 321 322 324 331 336 340 342 345 352 351 352 348 351 349 351 352 356 356 355 357 358 355 355 354 355 355 350 349
314 315 316 317 319 321 323 324 329 333 338 342 348 351 354 351 351 349 349 350 351 353 356 356 353 357 357 357 355 353 350 344
313 314 316 317 319 321 322 323 326 329 332 339 347 350 351 353 352 348 349 346 351 358 356 358 356 355 353 352 348 348 347 341
312 313 315 316 317 320 321 323 323 328 329 336 346 348 348 348 353 350 350 350 342 353 355 357 355 353 354 354 348 348 348 348
312 313 314 316 317 318 320 322 323 325 329 330 334 342 347 349 351 343 343 345 349 350 354 355 354 355 354 355 349 348 346 343
311 312 314 315 316 316 318 319 321 322 325 328 332 335 340 342 338 334 340 346 347 346 346 347 348 350 353 351 351 348 347 346
311 311 313 313 314 314 315 317 318 321 322 325 328 331 334 337 336 330 337 338 340 336 338 337 338 339 345 343 343 343 342 342

GFSFLT1_sfc_thetae_093.txt.gz
Theta_e
312 312 313 319 333 349 349 350 350 349 349 355 355 355 354 354 353 353 351 350 351 350 346 350 347 351 344 346 342 338 332 329
311 312 315 313 316 339 348 349 348 346 346 353 353 353 353 353 352 353 351 348 346 346 344 344 343 343 338 336 334 333 330 328
310 311 313 314 316 344 349 351 345 345 347 351 350 350 352 352 352 353 352 349 346 344 343 341 341 339 336 331 331 331 329 328
309 311 311 311 316 335 348 347 345 344 348 349 348 346 348 349 350 352 353 351 347 345 341 340 339 338 336 331 332 330 329 331
311 314 314 315 313 322 343 337 337 340 350 351 352 347 345 346 346 348 349 349 344 346 343 341 341 338 335 332 330 334 332 333
310 311 313 321 320 322 325 334 349 351 353 351 351 353 349 346 345 346 347 347 346 344 343 342 340 339 335 334 331 333 336 333
311 312 311 317 316 317 318 323 333 348 352 354 352 350 350 348 346 345 346 346 347 345 345 342 340 338 336 338 333 333 333 330
312 313 313 313 317 319 318 318 318 329 327 349 354 352 349 351 349 347 345 345 344 347 347 342 339 339 336 335 334 334 333 332
310 314 314 314 317 315 317 318 321 326 329 335 345 343 347 347 349 348 344 347 345 344 348 343 341 338 337 334 331 331 330 333
310 312 316 317 317 320 324 324 329 332 333 334 340 344 348 350 350 349 348 346 348 345 345 345 342 341 336 336 335 332 332 331
310 313 314 314 315 317 320 324 325 325 326 331 325 334 342 342 344 346 348 348 348 348 346 344 343 341 338 336 336 333 330 333
309 309 310 311 314 317 321 320 320 321 324 323 322 323 325 330 340 344 347 349 348 347 345 344 342 342 339 337 337 335 332 329
307 308 311 313 314 313 318 319 317 323 320 321 322 321 324 327 333 338 342 345 348 347 347 344 342 341 341 339 336 337 334 330
307 309 310 310 312 313 313 313 316 320 321 320 320 319 321 323 326 329 336 342 344 346 346 346 344 343 340 340 338 336 337 334
305 303 306 307 310 311 312 312 313 317 319 320 320 320 321 322 324 327 331 338 340 341 344 343 346 345 344 344 340 339 338 337
303 303 305 306 306 308 310 309 311 314 314 317 317 318 322 323 325 328 330 334 340 341 342 343 343 345 346 344 343 343 340 342
303 303 303 307 307 309 310 310 310 313 314 316 314 317 318 320 324 327 329 333 338 339 333 334 338 342 343 334 325 324 338 342
301 304 305 307 308 308 308 310 311 313 313 314 315 316 318 318 321 323 326 330 328 322 324 325 328 328 328 330 327 324 322 333
302 303 304 305 306 306 307 308 310 310 310 309 311 313 316 318 317 320 325 324 318 319 322 324 325 323 326 321 322 324 322 322
301 302 303 304 305 307 306 306 307 307 308 309 309 310 313 314 315 317 321 319 318 320 323 325 325 324 324 320 321 322 320 320

GFSFLT1_sfc_thetae_096.txt.gz
Theta_e
311 315 337 345 351 350 349 350 352 352 353 355 355 356 354 356 355 354 350 349 349 350 347 350 349 352 345 346 342 338 333 330
308 309 311 317 346 348 348 349 350 350 354 353 353 353 353 352 353 352 349 346 345 346 345 344 344 343 340 339 336 334 331 328
308 309 311 314 327 345 347 348 348 348 348 352 351 351 352 352 352 352 350 347 345 346 344 343 343 341 339 335 334 332 330 328
308 307 310 310 334 342 346 346 346 343 343 348 349 350 351 351 351 350 351 347 346 345 344 342 341 340 339 334 331 330 328 326
311 311 309 314 320 343 345 346 341 335 339 347 347 347 349 349 350 351 351 350 347 346 342 342 342 340 337 334 330 328 326 328
308 310 315 318 326 337 340 345 340 333 338 347 348 344 343 347 347 349 351 352 350 345 344 341 341 339 336 334 331 327 328 327
307 309 313 316 321 323 329 333 337 338 345 350 349 350 346 344 344 344 347 349 350 347 344 344 340 339 336 333 329 325 325 330
309 310 309 312 313 313 314 318 325 324 325 335 347 346 349 346 346 343 344 344 345 345 345 342 341 338 337 332 332 330 328 329
310 314 315 318 320 321 321 323 322 324 326 327 334 340 343 344 344 346 344 343 344 342 344 343 341 339 338 335 334 333 331 329
312 312 313 313 314 316 318 320 320 323 326 328 332 330 335 343 346 346 345 344 343 342 341 342 343 341 339 335 334 330 331 331
308 310 310 311 313 317 317 316 317 318 322 321 321 322 323 326 331 337 342 344 345 344 344 342 343 343 340 337 335 334 330 328
307 307 308 311 312 317 316 316 316 320 319 317 318 318 316 320 322 329 333 338 340 344 345 344 343 344 342 340 338 336 333 329
305 307 308 309 310 315 316 313 316 319 316 317 317 316 318 320 321 321 322 327 336 341 342 343 343 342 342 342 339 335 335 334
305 307 307 308 309 309 309 310 312 315 318 316 315 314 314 315 317 317 320 323 328 333 339 341 340 341 341 342 340 338 335 335
304 303 304 304 306 308 309 308 308 310 313 315 314 314 314 315 317 317 319 322 325 328 333 338 340 340 341 342 339 338 336 335
303 304 304 304 305 305 307 308 307 308 311 312 312 315 313 316 317 320 320 322 323 326 330 334 339 340 339 338 339 339 338 336
300 302 301 301 304 305 307 307 307 307 308 310 312 312 311 313 316 318 319 320 324 326 328 331 334 336 337 336 335 336 332 327
299 301 302 303 303 304 305 305 305 305 306 306 307 308 310 314 315 315 316 318 321 321 322 324 326 329 329 329 329 330 329 328
299 300 300 301 302 303 302 303 303 303 304 304 304 305 306 308 312 314 315 317 318 318 319 321 323 325 324 321 322 324 320 321
298 298 300 300 301 302 302 302 302 302 302 302 302 303 303 304 305 307 310 313 317 317 318 319 321 324 323 320 320 322 317 317

GFSFLT1_sfc_thetae_102.txt.gz
Theta_e
337 340 342 343 346 348 350 351 351 349 348 349 349 350 352 352 351 351 350 348 349 351 348 351 350 352 349 349 347 344 339 335
336 338 341 342 344 345 349 351 351 349 349 350 348 350 351 350 352 352 350 347 345 346 346 345 345 346 345 342 340 339 336 334
325 336 340 342 344 346 347 350 350 350 347 350 348 349 350 350 350 350 350 347 345 345 345 344 344 344 343 341 339 338 335 334
306 311 324 327 344 346 346 347 349 348 348 348 348 349 350 350 348 350 349 349 345 344 344 344 343 344 343 342 339 337 335 333
306 307 308 311 329 346 345 345 346 345 346 347 347 348 349 350 350 350 350 349 345 344 343 343 343 343 343 340 339 337 333 332
306 309 310 312 321 335 342 347 342 339 339 345 347 348 348 349 349 349 350 350 348 344 344 343 345 344 341 340 339 335 333 332
316 309 316 320 329 336 340 341 339 338 340 342 345 346 346 348 347 348 349 349 350 347 345 345 344 343 341 340 339 337 338 334
312 308 316 320 324 330 331 332 334 336 337 338 344 346 345 342 342 343 344 346 349 347 347 346 345 342 340 339 338 338 336 337
309 310 315 317 319 323 324 323 323 326 326 330 329 329 334 339 343 345 344 343 344 343 344 345 344 341 341 341 339 336 336 334
310 311 314 316 315 319 321 324 325 324 324 326 323 324 325 331 331 336 342 342 342 341 340 340 341 342 342 341 339 336 335 337
309 311 312 314 317 319 318 317 318 318 319 317 317 318 318 318 320 324 328 332 334 337 338 338 338 339 339 340 340 339 335 339
307 309 311 312 312 313 314 316 317 317 317 315 315 312 312 314 318 321 323 325 326 329 332 334 336 338 339 338 340 340 338 332
307 309 311 313 313 312 314 315 316 317 316 315 315 314 314 315 317 318 317 319 322 325 327 328 329 333 336 338 338 338 339 336
306 307 310 311 312 310 310 311 309 311 313 313 312 311 310 311 312 312 314 316 318 322 325 326 327 329 332 334 336 337 336 336
303 304 305 306 307 304 307 305 304 305 306 307 308 308 309 310 310 311 311 313 316 319 321 322 323 326 329 331 333 334 334 332
299 300 300 299 302 303 303 303 303 303 304 304 305 305 305 306 308 308 310 313 316 319 320 322 323 325 326 328 329 331 332 332
298 298 299 300 301 302 302 302 302 303 304 303 303 304 304 304 305 307 308 311 312 314 316 317 320 321 322 322 324 326 328 330
298 299 300 301 301 301 302 302 302 303 302 302 303 302 303 303 304 304 305 306 309 310 311 312 315 317 318 320 321 324 325 327
296 298 300 300 300 300 301 301 301 301 301 301 301 301 301 302 302 302 303 304 306 307 307 308 309 311 314 317 319 321 322 323
296 297 298 298 298 299 300 300 300 300 300 300 300 300 301 300 300 301 303 303 304 304 305 306 307 308 310 313 316 318 319 320

GFSFLT1_sfc_thetae_105.txt.gz
Theta_e
344 344 344 347 350 352 354 357 357 353 350 353 354 354 355 356 357 357 356 354 354 352 351 352 353 353 350 350 349 347 345 343
345 344 345 346 349 351 354 356 356 356 351 351 352 352 354 353 354 357 355 353 353 352 351 351 353 351 350 351 347 348 348 346
327 345 349 350 348 350 352 356 357 356 354 352 353 351 353 353 354 356 355 353 352 353 352 352 351 351 350 350 349 348 347 346
319 321 344 349 350 350 352 354 357 357 355 355 354 354 354 355 354 355 356 354 352 352 352 351 351 351 351 350 348 348 347 347
321 323 319 339 348 352 354 354 358 357 356 356 356 355 355 355 355 359 358 356 352 352 353 352 352 353 353 352 351 351 348 348
322 321 320 321 323 339 354 352 353 355 356 355 355 356 356 356 356 357 357 356 355 352 353 353 355 354 352 351 350 348 348 347
327 325 321 326 329 336 347 353 350 352 353 355 354 357 356 356 357 356 357 357 356 354 354 355 357 354 354 352 351 349 347 347
324 324 323 328 335 344 348 349 349 349 350 352 353 353 354 355 356 356 358 358 357 355 354 353 354 352 350 349 349 350 349 348
325 318 323 328 336 342 345 343 344 343 343 345 347 348 352 354 356 355 354 354 354 354 353 353 353 349 349 349 347 345 344 346
316 316 322 327 331 334 335 337 340 344 342 340 340 338 337 342 343 347 349 347 347 347 345 340 342 337 342 342 342 338 337 341
314 316 320 322 327 330 332 333 335 337 335 331 331 331 331 331 331 332 337 338 339 341 340 339 339 339 331 338 339 339 331 334
315 317 320 322 325 326 328 330 332 331 333 333 336 327 323 325 329 331 333 334 334 335 337 337 339 333 336 334 334 337 337 330
314 318 320 323 321 323 326 327 325 326 327 328 326 328 326 325 327 329 331 331 331 330 333 335 336 334 337 337 337 337 333 331
318 320 320 320 319 320 320 321 320 321 323 324 325 324 323 322 323 322 322 323 325 327 329 331 333 333 333 333 336 337 335 333
316 316 317 318 315 315 314 316 315 316 317 317 317 317 317 317 317 316 317 317 318 324 326 327 328 331 332 332 333 334 334 331
313 313 314 313 313 314 314 314 312 313 313 313 314 314 312 313 314 313 313 313 314 319 320 321 323 324 328 331 330 329 332 331
308 309 311 311 311 311 311 311 311 312 311 312 313 313 313 312 313 314 312 314 314 315 316 316 317 318 320 322 322 326 328 330
308 309 309 309 310 310 311 311 309 309 310 310 310 311 311 311 311 311 311 312 312 312 312 313 314 314 315 317 318 321 322 325
307 307 308 308 308 309 309 309 308 308 308 309 309 309 309 309 309 309 310 310 310 310 310 310 310 311 313 313 315 316 317 321
306 306 306 306 307 307 307 307 306 306 307 308 308 308 308 307 307 308 309 308 309 309 309 309 309 309 309 309 309 310 312 316

GFSFLT1_sfc_thetae_111.txt.gz
Theta_e
345 347 348 348 350 351 350 355 356 351 348 355 350 350 350 352 354 356 356 351 352 347 350 352 354 354 349 351 350 348 343 340
342 342 345 347 349 351 352 357 357 359 350 352 350 349 351 352 354 358 358 353 354 352 344 346 352 347 350 346 344 348 346 345
339 348 346 350 347 349 351 358 359 359 359 353 353 351 352 354 355 357 358 355 357 355 354 352 351 349 348 350 349 349 348 350
328 337 344 354 351 351 352 354 363 362 360 361 355 359 356 355 354 356 358 357 358 354 355 353 353 353 351 351 351 352 351 352
325 328 333 341 352 351 358 357 360 363 365 360 357 355 354 354 354 359 359 361 362 360 354 354 353 357 360 358 358 356 354 353
327 328 328 328 332 346 358 356 361 364 364 361 361 361 354 354 353 356 358 361 361 361 355 354 363 367 362 360 358 355 355 351
326 328 332 336 338 336 348 358 357 362 360 364 354 361 355 359 364 360 358 360 359 359 358 363 364 366 365 359 355 357 353 352
324 329 331 334 340 345 344 350 355 363 360 362 359 361 363 359 359 356 361 362 359 360 362 360 362 356 357 352 353 352 350 347
324 328 331 332 335 345 346 351 359 358 355 352 355 352 359 365 360 359 357 358 357 359 359 359 358 354 353 351 347 347 338 341
323 328 331 333 338 342 346 354 360 357 349 355 353 355 353 358 362 360 359 356 358 359 356 350 353 341 349 345 348 335 332 336
320 325 329 332 335 340 341 344 349 355 355 357 357 356 353 355 348 345 347 345 343 343 340 340 342 341 329 342 341 343 329 331
319 323 328 329 333 338 340 346 351 355 358 353 351 344 340 336 334 333 336 338 336 334 337 337 344 337 343 339 337 336 337 327
318 322 326 329 333 335 344 348 350 347 351 353 344 346 335 331 329 340 338 341 338 334 335 337 343 338 342 347 345 343 334 329
319 323 326 329 336 339 342 341 339 339 339 339 342 340 337 333 334 331 330 330 336 338 335 339 340 340 339 338 343 344 341 338
322 323 325 329 333 334 333 332 330 332 331 331 332 332 333 331 328 327 329 326 326 337 334 334 332 337 337 338 338 340 339 337
323 325 327 328 330 330 328 328 327 328 327 327 327 327 325 325 327 325 325 324 325 332 330 330 330 328 330 332 328 328 332 331
323 324 325 326 326 326 326 325 325 325 325 325 325 325 325 324 326 327 322 327 323 326 326 325 325 325 327 329 324 327 328 328
323 323 324 324 324 324 324 324 323 322 322 322 322 322 321 323 323 323 324 324 324 323 323 323 323 324 324 327 323 325 326 323
320 321 322 321 322 322 321 321 320 319 320 321 320 320 320 321 321 321 321 323 322 321 321 321 321 320 323 322 321 321 320 322
318 318 318 318 318 318 319 318 319 318 318 317 318 319 319 320 320 321 321 320 321 320 320 319 319 317 320 319 317 317 317 317

GFSFLT1_sfc_thetae_114.txt.gz
Theta_e
340 343 344 344 348 350 349 352 352 348 348 352 351 351 350 351 351 354 352 349 353 349 352 350 353 355 350 351 350 348 342 340
335 339 342 343 346 348 348 352 352 352 353 348 349 348 349 349 351 355 349 354 357 348 349 349 350 350 347 347 346 347 346 344
327 336 351 344 346 342 338 349 351 351 351 351 348 349 349 351 352 356 354 353 355 354 354 349 350 348 349 348 347 350 349 347
326 328 343 345 339 339 337 341 349 356 356 353 351 353 351 353 353 355 358 357 358 355 359 359 357 357 353 349 349 352 351 350
323 329 337 347 340 342 338 339 342 349 355 358 355 357 351 354 354 357 356 360 362 361 358 355 356 357 358 358 358 357 354 352
320 325 335 346 343 337 339 339 337 343 353 356 355 352 352 346 345 349 359 360 362 362 359 359 359 358 356 354 354 352 354 348
319 324 333 338 346 345 341 332 331 336 344 342 351 354 349 342 342 338 340 356 354 350 350 353 359 357 357 353 350 353 350 348
318 326 332 338 345 348 342 342 346 339 333 337 349 354 354 339 331 341 348 348 340 336 345 345 349 348 346 348 352 351 348 347
317 327 332 340 345 349 355 352 354 347 350 348 350 349 352 347 333 334 343 350 349 343 332 338 351 353 351 346 346 340 337 338
316 326 334 336 342 350 354 356 357 359 354 356 354 350 354 353 355 356 354 350 355 356 358 354 354 344 344 341 342 338 335 335
315 326 331 335 338 346 349 356 358 360 360 353 355 358 355 355 354 354 356 356 355 347 347 343 340 338 335 340 342 338 331 332
316 325 329 331 339 339 343 347 356 356 359 357 353 346 343 345 341 347 344 340 339 339 337 337 338 341 341 338 336 339 335 326
316 318 329 332 338 340 344 352 355 357 358 358 348 349 344 338 340 341 344 342 339 338 337 339 339 340 340 339 337 337 337 333
319 326 331 330 334 337 344 347 344 342 342 349 342 338 340 336 339 336 337 340 341 340 338 339 339 339 337 337 338 337 336 334
322 324 326 331 333 341 340 338 337 337 336 334 334 332 331 333 331 332 331 330 332 337 334 334 333 334 334 332 330 330 329 329
322 324 326 331 335 334 333 332 331 330 329 330 331 333 328 330 327 326 325 325 327 332 331 331 331 330 330 329 326 325 324 323
324 326 329 331 331 330 330 328 329 329 328 330 330 327 328 327 328 328 328 331 324 326 326 326 326 326 326 325 322 322 323 323
324 324 327 327 328 328 328 328 326 327 328 328 326 326 326 326 328 326 326 327 327 326 325 324 323 323 324 323 321 321 321 320
322 323 324 323 323 322 325 323 324 324 324 325 325 324 324 325 325 325 325 326 325 322 321 321 321 321 322 321 320 319 317 317
320 320 320 320 320 319 320 322 321 321 321 322 323 324 324 324 324 324 324 323 323 321 320 319 319 318 319 318 316 317 315 314

GFSFLT1_sfc_thetae_117.txt.gz
Theta_e
334 333 330 329 336 346 346 348 348 344 352 352 352 352 352 351 351 350 346 346 347 348 345 348 348 353 348 349 348 346 342 338
331 333 333 344 345 345 343 341 336 341 350 348 346 346 345 344 345 348 344 343 342 342 345 344 345 345 343 342 343 342 340 338
329 332 343 345 344 345 342 340 340 342 346 343 343 343 343 343 344 349 345 342 343 344 344 343 344 344 344 341 341 341 340 340
317 321 339 340 344 345 337 338 340 338 340 343 344 344 344 345 346 350 349 346 347 344 343 345 345 345 344 342 341 339 341 342
309 317 339 337 340 341 336 337 339 337 337 335 351 349 345 346 347 350 351 349 350 348 349 347 345 348 346 346 349 349 347 343
308 312 341 338 336 334 337 338 330 331 330 334 348 348 345 342 341 347 346 347 344 349 345 341 342 349 347 344 343 343 342 338
308 311 337 337 334 336 336 333 329 333 334 337 343 345 338 339 340 339 343 344 342 339 340 337 336 336 332 333 330 338 341 340
309 311 329 337 339 338 331 336 334 334 331 332 335 334 340 335 336 338 340 344 339 338 338 338 332 336 330 332 330 332 342 338
309 314 329 338 339 336 328 328 333 331 331 329 329 327 331 337 332 340 340 337 340 336 336 333 330 336 330 336 335 336 330 328
307 321 329 337 339 335 334 333 337 332 332 332 331 330 333 344 333 336 335 334 339 329 333 332 333 342 335 334 332 329 327 327
306 325 331 335 339 344 343 343 338 336 340 343 342 342 342 342 340 335 336 338 343 340 336 338 332 329 327 330 329 328 322 325
305 326 328 337 339 346 348 349 346 347 349 342 342 339 336 340 339 340 335 339 341 335 330 329 330 329 327 329 330 329 326 320
306 321 328 337 336 337 341 344 343 342 343 341 338 336 330 329 332 328 326 326 328 330 329 328 328 327 327 327 326 325 325 324
306 322 325 331 330 334 337 333 330 330 334 331 329 329 328 329 326 324 326 328 328 327 329 327 328 327 325 326 324 322 322 323
311 319 322 331 331 330 331 328 324 323 323 323 321 322 321 320 321 321 320 319 322 321 321 320 320 321 321 321 319 319 318 318
317 321 329 328 327 326 325 321 319 320 321 320 319 319 320 318 317 316 316 315 318 319 318 318 318 319 318 318 317 317 317 316
318 325 325 324 324 322 321 320 319 319 319 317 317 316 316 316 316 316 318 317 318 317 318 318 318 318 318 318 316 315 316 316
320 321 321 320 320 319 318 317 316 317 316 316 315 314 315 314 314 313 314 315 316 316 316 316 316 317 317 316 315 315 314 314
316 316 316 316 316 315 314 314 314 313 312 312 312 311 312 313 312 313 314 314 315 315 315 315 314 314 314 314 313 314 313 312
315 314 315 314 313 313 310 311 311 310 310 310 309 311 311 311 312 312 313 312 313 314 314 314 314 314 312 311 311 312 311 310

GFSFLT1_sfc_thetae_123.txt.gz
Theta_e
337 338 345 345 347 350 352 353 352 352 353 352 354 353 351 351 352 351 348 347 347 349 346 347 346 350 346 347 345 344 342 339
331 330 335 343 345 347 349 348 346 349 350 350 352 350 351 349 351 350 346 344 342 343 343 342 342 342 341 341 340 340 339 339
329 337 337 340 340 342 345 346 346 349 348 349 349 349 350 350 349 350 348 344 341 341 341 339 340 341 340 339 338 337 337 337
328 337 335 337 338 340 343 343 346 347 345 346 347 349 349 348 348 349 349 344 340 339 338 340 338 339 337 335 336 337 339 338
328 337 335 336 337 340 341 341 343 343 342 343 343 345 345 344 344 346 346 340 339 339 336 338 335 335 334 334 334 334 334 336
326 336 338 337 337 338 339 343 341 337 336 338 339 340 342 341 343 345 344 343 342 336 334 337 336 335 335 335 334 331 332 333
321 336 340 339 338 337 336 337 335 334 331 335 337 336 338 340 342 343 342 342 340 336 335 335 337 335 334 335 334 333 329 331
320 335 339 340 338 339 336 334 333 331 330 336 338 333 333 337 338 342 342 341 341 338 336 336 335 333 333 333 331 331 331 330
318 332 336 341 339 337 334 330 330 330 327 330 337 332 331 332 334 337 338 342 342 340 337 336 334 332 333 332 331 328 328 329
317 330 333 336 335 335 332 330 329 330 332 328 330 327 328 331 332 334 336 340 339 337 337 338 334 332 331 331 329 328 326 331
318 327 328 331 333 333 332 331 329 330 330 328 327 327 327 330 328 330 333 334 338 331 332 330 328 329 330 328 328 329 323 323
319 326 327 329 331 333 332 330 328 330 329 329 327 323 324 328 328 328 330 331 333 331 330 330 329 328 326 326 328 327 322 319
317 326 329 330 331 329 327 328 328 329 330 330 331 328 330 331 332 330 328 330 333 337 335 331 325 325 324 324 321 320 320 320
317 327 331 331 330 327 326 327 326 329 330 332 332 330 327 327 323 323 322 322 323 324 324 324 323 322 321 319 317 316 315 315
322 327 329 334 334 332 329 323 319 321 323 323 323 322 324 323 319 318 320 315 315 316 317 317 317 317 317 315 313 313 312 312
324 327 331 325 320 321 319 317 316 317 317 316 316 315 315 313 313 312 313 312 314 313 314 314 315 315 314 313 311 311 311 311
322 320 318 317 316 316 316 316 315 315 315 315 314 314 313 312 312 312 312 312 314 313 314 313 313 313 313 311 311 311 311 311
316 317 316 317 317 316 317 317 315 313 313 313 312 311 312 312 312 310 311 311 312 312 311 311 311 311 311 310 309 310 310 310
313 313 312 311 312 313 313 313 312 309 311 308 309 309 311 310 309 309 309 309 310 310 311 311 311 310 310 308 308 308 308 308
307 306 307 308 308 309 309 309 307 305 305 305 305 305 305 305 305 306 307 307 307 308 310 309 309 308 307 306 306 307 307 306